When you browse on this site, cookies collect data to enhance your experience and personalize the content and advertising you see.
Visit our Privacy Policy to learn more. By continuing to use the site, you agree to this use of cookies and data.
  • In Romania
  • List of Countries
  • For 7 days
  • Water Temperature
  • Weather Map
  • Weather Widgets
  • user-avatar
    Login

    Hourly Weather Ras al-Chajma

    Today, 25 May, Monday

    Time Temperature Precipitation Wind Pressure Humidity
    00:00 +34°C° 0 mm 1 mps 752 mmHg 38%
    01:00 +34°C° 0 mm 1 mps 752 mmHg 38%
    02:00 +33°C° 0 mm 1 mps 752 mmHg 37%
    03:00 +33°C° 0 mm 1 mps 752 mmHg 35%
    04:00 +33°C° 0 mm 1 mps 752 mmHg 37%
    05:00 +34°C° 0 mm 1 mps 752 mmHg 37%
    06:00 +34°C° 0 mm 1 mps 753 mmHg 37%
    07:00 +35°C° 0 mm 1 mps 753 mmHg 37%
    08:00 +38°C° 0 mm 2 mps 754 mmHg 34%
    09:00 +39°C° 0 mm 2 mps 754 mmHg 31%
    10:00 +42°C° 0 mm 3 mps 754 mmHg 28%
    11:00 +42°C° 0 mm 3 mps 754 mmHg 28%
    12:00 +42°C° 0 mm 3 mps 754 mmHg 28%
    13:00 +43°C° 0 mm 4 mps 754 mmHg 28%
    14:00 +41°C° 0.2 mm 4 mps 753 mmHg 33%
    15:00 +39°C° 0.2 mm 5 mps 752 mmHg 37%
    16:00 +38°C° 0 mm 4 mps 752 mmHg 38%
    17:00 +39°C° 0.2 mm 5 mps 752 mmHg 37%
    18:00 +39°C° 0.2 mm 5 mps 752 mmHg 36%
    19:00 +38°C° 0.2 mm 6 mps 753 mmHg 35%
    20:00 +38°C° 0 mm 4 mps 753 mmHg 33%
    21:00 +38°C° 0 mm 3 mps 753 mmHg 31%
    22:00 +38°C° 0 mm 2 mps 753 mmHg 29%
    23:00 +37°C° 0 mm 2 mps 753 mmHg 31%

    Tomorrow, 26 May, Tuesday

    Time Temperature Precipitation Wind Pressure Humidity
    00:00 +36°C° 0 mm 2 mps 753 mmHg 33%
    01:00 +36°C° 0 mm 3 mps 752 mmHg 35%
    02:00 +35°C° 0 mm 2 mps 752 mmHg 38%
    03:00 +35°C° 0 mm 2 mps 752 mmHg 42%
    04:00 +33°C° 0 mm 1 mps 752 mmHg 45%
    05:00 +34°C° 0 mm 1 mps 752 mmHg 41%
    06:00 +35°C° 0 mm 1 mps 753 mmHg 38%
    07:00 +36°C° 0 mm 1 mps 753 mmHg 34%
    08:00 +39°C° 0 mm 1 mps 753 mmHg 31%
    09:00 +40°C° 0 mm 2 mps 754 mmHg 29%
    10:00 +42°C° 0 mm 3 mps 754 mmHg 26%
    11:00 +42°C° 0 mm 3 mps 754 mmHg 27%
    12:00 +42°C° 0 mm 3 mps 753 mmHg 27%
    13:00 +42°C° 0 mm 3 mps 753 mmHg 28%
    14:00 +42°C° 0 mm 3 mps 753 mmHg 27%
    15:00 +42°C° 0 mm 3 mps 752 mmHg 27%
    16:00 +42°C° 0 mm 3 mps 752 mmHg 27%
    17:00 +40°C° 0 mm 3 mps 752 mmHg 29%
    18:00 +39°C° 0 mm 2 mps 752 mmHg 31%
    19:00 +38°C° 0 mm 2 mps 752 mmHg 33%
    20:00 +37°C° 0 mm 1 mps 753 mmHg 34%
    21:00 +36°C° 0 mm 1 mps 753 mmHg 35%
    22:00 +36°C° 0 mm 1 mps 753 mmHg 35%
    23:00 +35°C° 0 mm 1 mps 753 mmHg 36%

    Day after tomorrow, 27 May, Wednesday

    Time Temperature Precipitation Wind Pressure Humidity
    00:00 +35°C° 0 mm 1 mps 752 mmHg 37%
    01:00 +34°C° 0 mm 1 mps 752 mmHg 38%
    02:00 +34°C° 0 mm 1 mps 752 mmHg 39%
    03:00 +33°C° 0 mm 1 mps 752 mmHg 40%
    04:00 +31°C° 0 mm 0 mps 751 mmHg 41%
    05:00 +34°C° 0 mm 1 mps 752 mmHg 38%
    06:00 +35°C° 0 mm 1 mps 752 mmHg 35%
    07:00 +37°C° 0 mm 2 mps 753 mmHg 32%
    08:00 +38°C° 0 mm 3 mps 753 mmHg 30%
    09:00 +39°C° 0 mm 3 mps 753 mmHg 29%
    10:00 +41°C° 0 mm 4 mps 753 mmHg 27%
    11:00 +42°C° 0 mm 4 mps 753 mmHg 28%
    12:00 +42°C° 0 mm 3 mps 753 mmHg 28%
    13:00 +42°C° 0 mm 3 mps 752 mmHg 29%
    14:00 +42°C° 0 mm 3 mps 752 mmHg 29%
    15:00 +42°C° 0 mm 3 mps 752 mmHg 30%
    16:00 +40°C° 0 mm 3 mps 751 mmHg 31%
    17:00 +39°C° 0 mm 3 mps 751 mmHg 32%
    18:00 +39°C° 0 mm 2 mps 751 mmHg 33%
    19:00 +38°C° 0 mm 2 mps 751 mmHg 34%
    20:00 +36°C° 0 mm 1 mps 751 mmHg 34%
    21:00 +36°C° 0 mm 1 mps 752 mmHg 33%
    22:00 +36°C° 0 mm 1 mps 752 mmHg 32%
    23:00 +36°C° 0 mm 1 mps 751 mmHg 33%

    28 May, Thursday

    Time Temperature Precipitation Wind Pressure Humidity
    00:00 +35°C° 0 mm 1 mps 751 mmHg 33%
    01:00 +35°C° 0 mm 1 mps 751 mmHg 34%
    02:00 +34°C° 0 mm 1 mps 750 mmHg 35%
    03:00 +34°C° 0 mm 1 mps 750 mmHg 36%
    04:00 +33°C° 0 mm 1 mps 750 mmHg 37%
    05:00 +35°C° 0 mm 1 mps 750 mmHg 34%
    06:00 +36°C° 0 mm 1 mps 751 mmHg 31%
    07:00 +38°C° 0 mm 2 mps 751 mmHg 28%
    08:00 +39°C° 0 mm 2 mps 752 mmHg 25%
    09:00 +42°C° 0 mm 3 mps 752 mmHg 22%
    10:00 +44°C° 0 mm 3 mps 752 mmHg 19%
    11:00 +44°C° 0 mm 4 mps 751 mmHg 19%
    12:00 +44°C° 0 mm 4 mps 751 mmHg 20%
    13:00 +44°C° 0 mm 4 mps 750 mmHg 20%
    14:00 +43°C° 0 mm 4 mps 750 mmHg 22%
    15:00 +43°C° 0 mm 3 mps 749 mmHg 24%
    16:00 +42°C° 0 mm 3 mps 749 mmHg 25%
    17:00 +41°C° 0 mm 2 mps 749 mmHg 25%
    18:00 +40°C° 0 mm 2 mps 749 mmHg 25%
    19:00 +39°C° 0 mm 1 mps 749 mmHg 25%
    20:00 +39°C° 0 mm 1 mps 749 mmHg 26%
    21:00 +37°C° 0 mm 1 mps 749 mmHg 26%
    22:00 +37°C° 0 mm 2 mps 750 mmHg 27%
    23:00 +36°C° 0 mm 1 mps 749 mmHg 29%

    29 May, Friday

    Time Temperature Precipitation Wind Pressure Humidity
    00:00 +35°C° 0 mm 1 mps 749 mmHg 31%
    01:00 +35°C° 0 mm 1 mps 749 mmHg 34%
    02:00 +34°C° 0 mm 1 mps 749 mmHg 33%
    03:00 +34°C° 0 mm 1 mps 749 mmHg 33%
    04:00 +34°C° 0 mm 1 mps 749 mmHg 33%
    05:00 +36°C° 0 mm 1 mps 749 mmHg 29%
    06:00 +37°C° 0 mm 1 mps 749 mmHg 26%
    07:00 +40°C° 0 mm 1 mps 749 mmHg 23%
    08:00 +41°C° 0 mm 2 mps 750 mmHg 22%
    09:00 +43°C° 0 mm 3 mps 750 mmHg 20%
    10:00 +44°C° 0 mm 3 mps 750 mmHg 19%
    11:00 +44°C° 0 mm 3 mps 750 mmHg 19%
    12:00 +44°C° 0 mm 3 mps 750 mmHg 18%
    13:00 +45°C° 0 mm 3 mps 749 mmHg 18%
    14:00 +44°C° 0 mm 3 mps 749 mmHg 19%
    15:00 +43°C° 0 mm 3 mps 748 mmHg 20%
    16:00 +43°C° 0 mm 3 mps 748 mmHg 21%
    17:00 +42°C° 0 mm 3 mps 748 mmHg 21%
    18:00 +40°C° 0 mm 2 mps 748 mmHg 22%
    19:00 +40°C° 0 mm 2 mps 748 mmHg 23%
    20:00 +39°C° 0 mm 2 mps 748 mmHg 25%
    21:00 +38°C° 0 mm 2 mps 749 mmHg 27%
    22:00 +37°C° 0 mm 2 mps 749 mmHg 28%
    23:00 +36°C° 0 mm 1 mps 749 mmHg 29%

    30 May, Saturday

    Time Temperature Precipitation Wind Pressure Humidity
    00:00 +35°C° 0 mm 1 mps 749 mmHg 30%
    01:00 +34°C° 0 mm 1 mps 749 mmHg 30%
    02:00 +36°C° 0 mm 2 mps 749 mmHg 29%
    03:00 +36°C° 0 mm 2 mps 749 mmHg 28%
    04:00 +36°C° 0 mm 3 mps 749 mmHg 27%
    05:00 +36°C° 0 mm 3 mps 749 mmHg 26%
    06:00 +37°C° 0 mm 3 mps 749 mmHg 26%
    07:00 +38°C° 0 mm 3 mps 750 mmHg 26%
    08:00 +39°C° 0 mm 3 mps 750 mmHg 24%
    09:00 +42°C° 0 mm 3 mps 750 mmHg 23%
    10:00 +43°C° 0 mm 3 mps 751 mmHg 21%
    11:00 +44°C° 0 mm 3 mps 750 mmHg 22%
    12:00 +44°C° 0 mm 3 mps 750 mmHg 22%
    13:00 +44°C° 0 mm 4 mps 750 mmHg 23%
    14:00 +44°C° 0 mm 3 mps 750 mmHg 23%
    15:00 +43°C° 0 mm 3 mps 749 mmHg 24%
    16:00 +42°C° 0 mm 2 mps 749 mmHg 24%
    17:00 +41°C° 0 mm 2 mps 749 mmHg 25%
    18:00 +41°C° 0 mm 2 mps 749 mmHg 26%
    19:00 +40°C° 0 mm 2 mps 749 mmHg 27%
    20:00 +39°C° 0 mm 2 mps 749 mmHg 29%
    21:00 +38°C° 0 mm 2 mps 750 mmHg 31%
    22:00 +37°C° 0 mm 2 mps 750 mmHg 32%
    23:00 +36°C° 0 mm 2 mps 750 mmHg 34%
    Show more